• In Portugal
  • List of Countries
  • For 7 days
  • Water Temperature
  • Satellite Maps
  • Weather Map
  • Weather Widgets
  • user-avatar
    Login

    Hourly Weather Adıyaman

    Today, 24 February, Saturday

    Time Temperature Precipitation Wind Pressure Humidity
    00:00 +9°C° 0 mm 1 mps 698 mmHg 73%
    01:00 +9°C° 0 mm 1 mps 698 mmHg 73%
    02:00 +8°C° 0 mm 1 mps 698 mmHg 74%
    03:00 +8°C° 0 mm 1 mps 698 mmHg 75%
    04:00 +8°C° 0 mm 1 mps 698 mmHg 76%
    05:00 +8°C° 0 mm 1 mps 698 mmHg 76%
    06:00 +7°C° 0 mm 1 mps 698 mmHg 77%
    07:00 +8°C° 0 mm 1 mps 698 mmHg 74%
    08:00 +9°C° 0 mm 1 mps 698 mmHg 71%
    09:00 +10°C° 0 mm 1 mps 698 mmHg 68%
    10:00 +11°C° 0 mm 1 mps 698 mmHg 65%
    11:00 +12°C° 0 mm 1 mps 698 mmHg 62%
    12:00 +13°C° 0 mm 1 mps 698 mmHg 59%
    13:00 +13°C° 0.1 mm 1 mps 698 mmHg 57%
    14:00 +13°C° 0.1 mm 1 mps 698 mmHg 55%
    15:00 +14°C° 0.1 mm 1 mps 698 mmHg 53%
    16:00 +13°C° 0 mm 1 mps 697 mmHg 57%
    17:00 +13°C° 0 mm 1 mps 697 mmHg 60%
    18:00 +12°C° 0 mm 1 mps 697 mmHg 64%
    19:00 +11°C° 0 mm 1 mps 697 mmHg 66%
    20:00 +11°C° 0 mm 1 mps 698 mmHg 68%
    21:00 +9°C° 0 mm 0 mps 698 mmHg 71%
    22:00 +10°C° 0 mm 1 mps 698 mmHg 72%
    23:00 +9°C° 0 mm 1 mps 698 mmHg 73%

    Tomorrow, 25 February, Sunday

    Time Temperature Precipitation Wind Pressure Humidity
    00:00 +9°C° 0 mm 1 mps 698 mmHg 74%
    01:00 +9°C° 0 mm 1 mps 698 mmHg 74%
    02:00 +9°C° 0 mm 1 mps 698 mmHg 75%
    03:00 +9°C° 0 mm 1 mps 698 mmHg 76%
    04:00 +9°C° 0 mm 1 mps 698 mmHg 78%
    05:00 +8°C° 0 mm 1 mps 698 mmHg 80%
    06:00 +8°C° 0 mm 1 mps 697 mmHg 81%
    07:00 +7°C° 0.1 mm 2 mps 697 mmHg 82%
    08:00 +8°C° 0.1 mm 2 mps 697 mmHg 82%
    09:00 +8°C° 0.1 mm 2 mps 697 mmHg 82%
    10:00 +8°C° 1.1 mm 3 mps 697 mmHg 83%
    11:00 +9°C° 1.1 mm 3 mps 697 mmHg 84%
    12:00 +8°C° 1.1 mm 4 mps 697 mmHg 85%
    13:00 +9°C° 3.4 mm 3 mps 696 mmHg 86%
    14:00 +8°C° 3.4 mm 3 mps 696 mmHg 87%
    15:00 +8°C° 3.4 mm 3 mps 696 mmHg 88%
    16:00 +8°C° 0.9 mm 2 mps 696 mmHg 88%
    17:00 +8°C° 0.9 mm 2 mps 696 mmHg 88%
    18:00 +9°C° 0.9 mm 1 mps 696 mmHg 88%
    19:00 +9°C° 0.3 mm 1 mps 696 mmHg 89%
    20:00 +9°C° 0.3 mm 1 mps 696 mmHg 90%
    21:00 +8°C° 0.3 mm 1 mps 696 mmHg 90%
    22:00 +8°C° 0.1 mm 1 mps 696 mmHg 90%
    23:00 +8°C° 0.1 mm 1 mps 697 mmHg 90%

    Day after tomorrow, 26 February, Monday

    Time Temperature Precipitation Wind Pressure Humidity
    00:00 +6°C° 0.1 mm 0 mps 697 mmHg 90%
    01:00 +6°C° 0 mm 0 mps 697 mmHg 90%
    02:00 +6°C° 0 mm 0 mps 697 mmHg 90%
    03:00 +5°C° 0 mm 0 mps 696 mmHg 90%
    04:00 +6°C° 0 mm 1 mps 696 mmHg 89%
    05:00 +6°C° 0 mm 1 mps 696 mmHg 89%
    06:00 +6°C° 0 mm 1 mps 696 mmHg 88%
    07:00 +7°C° 0 mm 1 mps 697 mmHg 86%
    08:00 +8°C° 0 mm 1 mps 697 mmHg 83%
    09:00 +8°C° 0 mm 1 mps 697 mmHg 81%
    10:00 +9°C° 0.1 mm 1 mps 697 mmHg 80%
    11:00 +10°C° 0.1 mm 1 mps 697 mmHg 79%
    12:00 +10°C° 0.1 mm 1 mps 697 mmHg 78%
    13:00 +11°C° 0.1 mm 1 mps 697 mmHg 76%
    14:00 +11°C° 0.1 mm 1 mps 696 mmHg 74%
    15:00 +11°C° 0.1 mm 1 mps 696 mmHg 73%
    16:00 +11°C° 0.1 mm 1 mps 696 mmHg 75%
    17:00 +11°C° 0.1 mm 1 mps 696 mmHg 77%
    18:00 +10°C° 0.1 mm 0 mps 696 mmHg 78%
    19:00 +10°C° 0.2 mm 1 mps 696 mmHg 81%
    20:00 +10°C° 0.2 mm 1 mps 697 mmHg 83%
    21:00 +9°C° 0.2 mm 1 mps 697 mmHg 86%
    22:00 +9°C° 0.3 mm 1 mps 697 mmHg 87%
    23:00 +9°C° 0.3 mm 1 mps 697 mmHg 88%

    27 February, Tuesday

    Time Temperature Precipitation Wind Pressure Humidity
    00:00 +9°C° 0.3 mm 1 mps 697 mmHg 90%
    01:00 +8°C° 0.4 mm 2 mps 697 mmHg 91%
    02:00 +8°C° 0.4 mm 2 mps 697 mmHg 92%
    03:00 +7°C° 0.4 mm 2 mps 697 mmHg 93%
    04:00 +7°C° 0.3 mm 2 mps 697 mmHg 94%
    05:00 +7°C° 0.3 mm 2 mps 697 mmHg 94%
    06:00 +7°C° 0.3 mm 2 mps 697 mmHg 95%
    07:00 +7°C° 0.8 mm 2 mps 697 mmHg 95%
    08:00 +8°C° 0.8 mm 2 mps 697 mmHg 94%
    09:00 +8°C° 0.8 mm 3 mps 698 mmHg 94%
    10:00 +8°C° 1.5 mm 3 mps 698 mmHg 93%
    11:00 +8°C° 1.5 mm 3 mps 698 mmHg 92%
    12:00 +7°C° 1.5 mm 4 mps 698 mmHg 91%
    13:00 +7°C° 2 mm 4 mps 698 mmHg 90%
    14:00 +9°C° 2 mm 3 mps 698 mmHg 89%
    15:00 +9°C° 2 mm 3 mps 698 mmHg 88%
    16:00 +9°C° 0.3 mm 3 mps 698 mmHg 88%
    17:00 +9°C° 0.3 mm 2 mps 699 mmHg 88%
    18:00 +10°C° 0.3 mm 1 mps 699 mmHg 88%
    19:00 +9°C° 0.1 mm 1 mps 699 mmHg 89%
    20:00 +9°C° 0.1 mm 1 mps 700 mmHg 90%
    21:00 +8°C° 0.1 mm 1 mps 701 mmHg 91%
    22:00 +8°C° 0 mm 1 mps 701 mmHg 91%
    23:00 +7°C° 0 mm 1 mps 701 mmHg 90%

    28 February, Wednesday

    Time Temperature Precipitation Wind Pressure Humidity
    00:00 +7°C° 0 mm 1 mps 701 mmHg 90%
    01:00 +7°C° 0 mm 1 mps 701 mmHg 89%
    02:00 +6°C° 0 mm 1 mps 702 mmHg 88%
    03:00 +6°C° 0 mm 1 mps 702 mmHg 87%
    04:00 +6°C° 0 mm 1 mps 702 mmHg 86%
    05:00 +6°C° 0 mm 1 mps 702 mmHg 85%
    06:00 +6°C° 0 mm 1 mps 702 mmHg 84%
    07:00 +7°C° 0 mm 1 mps 703 mmHg 81%
    08:00 +8°C° 0 mm 1 mps 703 mmHg 77%
    09:00 +9°C° 0 mm 1 mps 704 mmHg 73%
    10:00 +10°C° 0 mm 1 mps 704 mmHg 71%
    11:00 +11°C° 0 mm 1 mps 703 mmHg 68%
    12:00 +12°C° 0 mm 1 mps 703 mmHg 66%
    13:00 +12°C° 0 mm 1 mps 703 mmHg 64%
    14:00 +13°C° 0 mm 1 mps 703 mmHg 62%
    15:00 +13°C° 0 mm 1 mps 702 mmHg 60%
    16:00 +13°C° 0 mm 1 mps 702 mmHg 62%
    17:00 +12°C° 0 mm 1 mps 702 mmHg 64%
    18:00 +12°C° 0 mm 1 mps 702 mmHg 66%
    19:00 +11°C° 0 mm 1 mps 702 mmHg 68%
    20:00 +10°C° 0 mm 1 mps 702 mmHg 70%
    21:00 +10°C° 0 mm 1 mps 703 mmHg 71%
    22:00 +9°C° 0 mm 1 mps 703 mmHg 72%
    23:00 +9°C° 0 mm 1 mps 703 mmHg 73%

    1 March, Thursday

    Time Temperature Precipitation Wind Pressure Humidity
    00:00 +8°C° 0 mm 1 mps 703 mmHg 74%
    01:00 +8°C° 0 mm 1 mps 703 mmHg 74%
    02:00 +8°C° 0 mm 1 mps 703 mmHg 74%
    03:00 +8°C° 0 mm 1 mps 703 mmHg 74%
    04:00 +8°C° 0 mm 1 mps 703 mmHg 74%
    05:00 +7°C° 0 mm 1 mps 703 mmHg 74%
    06:00 +7°C° 0 mm 1 mps 703 mmHg 74%
    07:00 +8°C° 0 mm 1 mps 703 mmHg 71%
    08:00 +9°C° 0 mm 1 mps 704 mmHg 68%
    09:00 +10°C° 0 mm 1 mps 704 mmHg 66%
    10:00 +11°C° 0 mm 1 mps 704 mmHg 63%
    11:00 +12°C° 0 mm 1 mps 704 mmHg 61%
    12:00 +13°C° 0 mm 1 mps 704 mmHg 59%
    13:00 +14°C° 0 mm 1 mps 703 mmHg 56%
    14:00 +14°C° 0 mm 1 mps 703 mmHg 53%
    15:00 +15°C° 0 mm 2 mps 703 mmHg 50%
    16:00 +14°C° 0 mm 2 mps 702 mmHg 52%
    17:00 +14°C° 0 mm 1 mps 702 mmHg 54%
    18:00 +13°C° 0 mm 1 mps 702 mmHg 55%
    19:00 +12°C° 0 mm 1 mps 703 mmHg 56%
    20:00 +12°C° 0 mm 2 mps 703 mmHg 56%
    21:00 +10°C° 0 mm 2 mps 703 mmHg 57%
    22:00 +9°C° 0 mm 2 mps 703 mmHg 58%
    23:00 +9°C° 0 mm 2 mps 703 mmHg 58%
    Show more